EW1671 Weather Reports


time (UTC)temp
C
wind
direction
speed
KPH
gust
KPH
rain 1hr
cm
rain 24hr
cm
rain mn
cm
humidity
%
barometer
mb
20260507151553 13 295 3.2 19.3 0.00 0.13 0.00 60 1010.0
20260507151052 13 314 4.8 19.3 0.00 0.13 0.00 56 1010.1
20260507150551 12 30 3.2 17.7 0.00 0.13 0.00 57 1010.2
20260507150052 12 7 8.0 17.7 0.00 0.13 0.00 58 1010.4
20260507145550 12 331 3.2 19.3 0.00 0.38 0.00 57 1010.3
20260507145052 12 2 8.0 19.3 0.00 0.38 0.00 54 1010.4
20260507144549 12 347 9.7 17.7 0.00 0.38 0.00 57 1010.4
20260507144050 12 333 11.3 17.7 0.00 0.38 0.00 58 1010.5
20260507143546 12 39 6.4 14.5 0.00 0.38 0.00 59 1010.5
20260507143101 12 355 3.2 14.5 0.00 0.38 0.00 59 1010.6
20260507142546 12 47 3.2 16.1 0.00 0.38 0.00 56 1010.7
20260507142045 12 25 6.4 16.1 0.00 0.38 0.00 59 1010.7
20260507141603 11 12 6.4 12.9 0.00 0.38 0.00 59 1010.7
20260507141048 11 41 1.6 14.5 0.00 0.38 0.00 61 1010.7
20260507140547 11 30 6.4 14.5 0.00 0.38 0.00 58 1010.9
20260507140044 11 30 3.2 12.9 0.00 0.38 0.00 59 1010.9
20260507135544 11 330 4.8 14.5 0.00 0.56 0.00 58 1010.9
20260507135043 11 340 6.4 14.5 0.00 0.56 0.00 57 1011.1
20260507134543 11 357 3.2 14.5 0.00 0.56 0.00 57 1011.1
20260507134042 11 331 4.8 14.5 0.00 0.56 0.00 61 1011.3
20260507133542 11 4 3.2 8.0 0.00 0.56 0.00 58 1011.3
20260507133042 11 338 4.8 9.7 0.00 0.56 0.00 60 1011.3
20260507132540 11 346 4.8 9.7 0.00 0.56 0.00 61 1011.1
20260507132040 10 6 4.8 11.3 0.00 0.56 0.00 63 1011.2
20260507131551 10 353 3.2 12.9 0.00 0.56 0.00 62 1011.3
20260507131040 10 334 3.2 12.9 0.00 0.56 0.00 64 1011.3
20260507130541 10 333 4.8 12.9 0.00 0.56 0.00 62 1011.3
20260507130043 10 333 4.8 9.7 0.00 0.56 0.00 64 1011.2
20260507125540 10 339 4.8 14.5 0.00 0.61 0.00 63 1011.3
20260507125040 10 324 4.8 14.5 0.00 0.61 0.00 65 1011.3
20260507124538 10 349 8.0 16.1 0.00 0.61 0.00 64 1011.2
20260507124037 10 359 9.7 16.1 0.00 0.61 0.00 63 1011.2
20260507123537 10 349 9.7 16.1 0.00 0.61 0.00 63 1011.0
20260507123042 10 326 4.8 14.5 0.00 0.61 0.00 65 1011.1
20260507122536 10 338 4.8 16.1 0.00 0.61 0.00 65 1011.0
20260507122037 10 336 6.4 16.1 0.00 0.61 0.00 64 1010.9
20260507121542 10 336 6.4 14.5 0.00 0.61 0.00 65 1011.0
20260507121036 10 336 6.4 14.5 0.00 0.61 0.00 66 1011.1
20260507120535 9 333 3.2 11.3 0.00 0.61 0.00 66 1011.0
20260507120035 9 338 1.6 12.9 0.00 0.61 0.00 66 1011.1
20260507115535 9 345 6.4 12.9 0.00 0.71 0.00 67 1011.0
20260507115034 9 326 4.8 12.9 0.00 0.71 0.00 66 1011.0
20260507114535 9 348 4.8 12.9 0.00 0.71 0.00 66 1010.9
20260507114034 9 334 3.2 12.9 0.00 0.71 0.00 66 1011.1
20260507113534 9 335 6.4 12.9 0.00 0.71 0.00 66 1011.1
20260507113035 9 327 4.8 14.5 0.00 0.71 0.00 66 1011.1
20260507112532 9 332 6.4 14.5 0.00 0.71 0.00 67 1011.0
20260507112032 9 319 4.8 14.5 0.00 0.71 0.00 67 1010.9
20260507111531 9 330 4.8 12.9 0.00 0.71 0.00 66 1010.7
20260507111030 9 341 4.8 12.9 0.00 0.71 0.00 67 1010.7
20260507110530 9 338 4.8 12.9 0.00 0.71 0.00 66 1010.7
20260507110029 9 334 8.0 16.1 0.00 0.71 0.00 66 1010.7
20260507105528 9 327 6.4 16.1 0.00 0.76 0.00 66 1010.6
20260507105027 9 323 4.8 14.5 0.00 0.76 0.00 67 1010.5
20260507104526 9 332 8.0 14.5 0.00 0.76 0.00 66 1010.4
20260507104025 9 335 6.4 16.1 0.00 0.76 0.00 66 1010.4
20260507103524 9 341 8.0 16.1 0.00 0.76 0.00 67 1010.3
20260507103025 9 328 6.4 12.9 0.00 0.76 0.00 67 1010.3
20260507102523 9 343 4.8 9.7 0.00 0.76 0.00 67 1010.2
20260507102021 9 345 4.8 11.3 0.00 0.76 0.00 67 1010.1
20260507101522 9 333 4.8 12.9 0.00 0.76 0.00 67 1010.0
20260507101019 9 334 4.8 14.5 0.00 0.76 0.00 67 1010.0
20260507100519 9 344 6.4 14.5 0.00 0.76 0.00 66 1009.8
20260507100019 9 330 6.4 14.5 0.00 0.76 0.00 67 1009.9
20260507095518 9 335 4.8 12.9 0.00 0.76 0.00 67 1009.8
20260507095018 9 332 4.8 14.5 0.00 0.76 0.00 67 1009.8
20260507094518 9 334 8.0 14.5 0.00 0.76 0.00 67 1009.8
20260507094020 9 339 9.7 14.5 0.00 0.76 0.00 67 1009.8
20260507093516 9 341 6.4 12.9 0.00 0.76 0.00 67 1009.9
20260507093016 9 328 6.4 12.9 0.00 0.76 0.00 67 1009.9
20260507092516 9 329 6.4 12.9 0.00 0.76 0.00 67 1010.0
20260507092016 9 330 3.2 9.7 0.00 0.76 0.00 68 1009.8
20260507091516 9 330 4.8 12.9 0.00 0.76 0.00 67 1009.8
20260507091014 9 337 6.4 16.1 0.00 0.76 0.00 67 1009.8
20260507090514 9 329 8.0 17.7 0.00 0.76 0.00 66 1009.8
20260507090012 9 354 9.7 17.7 0.00 0.76 0.00 66 1009.6
20260507085511 9 330 6.4 14.5 0.00 0.76 0.00 67 1009.5
20260507085011 9 355 3.2 9.7 0.00 0.76 0.00 67 1009.5
20260507084514 9 347 4.8 14.5 0.00 0.76 0.00 68 1009.5
20260507084013 9 332 4.8 14.5 0.00 0.76 0.00 69 1009.4
20260507083509 10 330 3.2 9.7 0.00 0.76 0.00 68 1009.4
20260507083009 10 341 3.2 9.7 0.00 0.76 0.00 68 1009.4
20260507082508 10 330 4.8 12.9 0.00 0.76 0.00 70 1009.3
20260507082008 10 328 4.8 14.5 0.00 0.76 0.00 71 1009.3
20260507081509 10 330 8.0 16.1 0.00 0.76 0.00 70 1009.4
20260507081007 10 346 8.0 17.7 0.00 0.76 0.00 70 1009.3
20260507080506 9 9 9.7 17.7 0.00 0.76 0.00 72 1009.3
20260507080006 9 352 6.4 17.7 0.00 0.76 0.00 74 1009.3
20260507075505 10 354 3.2 6.4 0.00 0.76 0.00 76 1009.4
20260507075005 10 353 3.2 6.4 0.00 0.76 0.00 76 1009.2
20260507074506 10 359 3.2 8.0 0.00 0.76 0.00 76 1009.2
20260507074006 10 355 3.2 8.0 0.00 0.76 0.00 76 1009.2
20260507073504 10 1 1.6 9.7 0.00 0.76 0.00 77 1009.3
20260507073006 10 14 4.8 12.9 0.00 0.76 0.00 78 1009.3
20260507072502 10 19 6.4 12.9 0.00 0.76 0.00 78 1009.3
20260507072100 10 20 3.2 14.5 0.00 0.76 0.00 79 1009.3
20260507072001 10 12 3.2 16.1 0.00 0.76 0.00 79 1009.3
20260507071606 10 19 4.8 16.1 0.00 0.76 0.00 78 1009.3
20260507071059 10 30 9.7 14.5 0.00 0.76 0.00 80 1009.3
20260507070559 10 25 6.4 12.9 0.00 0.76 0.00 81 1009.4
20260507070104 10 25 4.8 12.9 0.00 0.76 0.00 81 1009.4
20260507065601 10 20 1.6 4.8 0.00 0.76 0.00 81 1009.5
20260507065058 10 20 0.0 3.2 0.00 0.76 0.00 81 1009.5
20260507064631 10 20 0.0 3.2 0.00 0.76 0.00 81 1009.6
20260507064059 10 20 0.0 6.4 0.00 0.76 0.00 80 1009.6
20260507063558 10 20 3.2 6.4 0.00 0.76 0.00 80 1009.3
20260507063109 10 344 1.6 9.7 0.00 0.76 0.00 80 1009.3
20260507062554 10 334 3.2 12.9 0.00 0.76 0.00 79 1009.3
20260507062055 10 315 6.4 12.9 0.00 0.76 0.00 79 1009.3
20260507061555 11 343 4.8 9.7 0.00 0.76 0.00 79 1009.4
20260507061053 11 335 4.8 12.9 0.00 0.76 0.00 79 1009.6
20260507060552 11 343 6.4 17.7 0.00 0.76 0.00 79 1009.3
20260507060113 11 342 8.0 17.7 0.00 0.76 0.00 78 1009.3
20260507055552 11 324 11.3 16.1 0.00 0.76 0.00 78 1009.4
20260507055051 11 359 9.7 16.1 0.00 0.76 0.00 78 1009.3
20260507054559 11 349 8.0 20.9 0.00 0.76 0.00 78 1009.2
20260507054050 11 359 9.7 20.9 0.00 0.76 0.00 78 1009.3
20260507053550 11 357 9.7 20.9 0.00 0.76 0.00 78 1009.1
20260507053512 11 47 9.7 20.9 0.00 0.76 0.00 78 1009.2
20260507050040 11 359 6.4 19.3 0.00 0.76 0.00 78 1008.9
20260507045530 11 334 6.4 20.9 0.00 0.76 0.00 78 1009.0
20260507045032 11 12 11.3 19.3 0.00 0.76 0.00 78 1009.2
20260507044529 11 3 11.3 20.9 0.00 0.76 0.00 78 1009.1
20260507044027 11 334 12.9 20.9 0.00 0.76 0.00 79 1009.0
20260507043527 11 8 11.3 20.9 0.00 0.76 0.00 79 1008.8
20260507043026 11 1 11.3 19.3 0.00 0.76 0.00 80 1008.9
20260507042528 11 351 8.0 19.3 0.00 0.76 0.00 80 1009.1
20260507042024 11 347 9.7 17.7 0.00 0.76 0.00 80 1009.1
20260507041527 11 331 4.8 17.7 0.00 0.76 0.00 80 1009.2
20260507041027 11 15 6.4 17.7 0.00 0.76 0.00 80 1009.0
20260507040521 11 352 4.8 12.9 0.00 0.76 0.00 80 1009.1
20260507040021 11 18 4.8 19.3 0.00 0.76 0.00 80 1009.1
20260507035520 11 341 4.8 19.3 0.00 0.76 0.76 80 1009.3
20260507035019 11 328 9.7 19.3 0.00 0.76 0.76 80 1009.1
20260507034518 11 338 11.3 19.3 0.00 0.76 0.76 81 1009.0
20260507034017 12 344 9.7 16.1 0.00 0.76 0.76 80 1008.8
20260507033517 12 356 8.0 16.1 0.00 0.76 0.76 81 1008.7
20260507033014 12 3 6.4 14.5 0.00 0.76 0.76 81 1008.8
20260507032514 12 1 6.4 12.9 0.00 0.76 0.76 81 1009.0
20260507032013 12 342 6.4 12.9 0.00 0.76 0.76 81 1009.1
20260507031513 12 14 4.8 14.5 0.00 0.76 0.76 81 1009.0
20260507031013 12 30 4.8 12.9 0.00 0.76 0.76 81 1009.0
20260507030516 12 25 3.2 12.9 0.00 0.76 0.76 81 1009.0
20260507030024 12 355 3.2 12.9 0.00 0.76 0.76 81 1009.0
20260507025511 12 25 4.8 16.1 0.00 0.76 0.76 81 1008.8
20260507025011 12 6 8.0 16.1 0.00 0.76 0.76 81 1008.6
20260507024515 12 39 6.4 12.9 0.00 0.76 0.76 81 1008.8
20260507024009 12 13 3.2 12.9 0.00 0.76 0.76 81 1009.0
20260507023508 12 332 3.2 14.5 0.00 0.76 0.76 81 1008.6
20260507023007 12 54 6.4 19.3 0.00 0.76 0.76 81 1008.2
20260507022508 12 331 6.4 22.5 0.00 0.76 0.76 81 1008.4
20260507022007 12 336 8.0 22.5 0.00 0.76 0.76 81 1008.7
20260507021505 12 336 8.0 17.7 0.00 0.76 0.76 81 1008.8
20260507021005 12 14 8.0 17.7 0.00 0.76 0.76 81 1008.8
20260507020504 12 357 4.8 14.5 0.00 0.76 0.76 81 1008.9
20260507020004 12 331 6.4 14.5 0.00 0.76 0.76 81 1008.6
20260507015506 12 358 4.8 14.5 0.00 0.76 0.76 81 1008.4
20260507015003 12 332 6.4 16.1 0.00 0.76 0.76 81 1008.5
20260507014504 12 347 8.0 24.1 0.00 0.76 0.76 81 1008.3
20260507014003 12 324 9.7 24.1 0.00 0.76 0.76 81 1008.3
20260507013601 12 321 12.9 24.1 0.00 0.76 0.76 81 1008.4
20260507013103 13 329 9.7 22.5 0.00 0.76 0.76 81 1008.4
20260507012602 13 359 12.9 22.5 0.00 0.76 0.76 81 1008.4
20260507012100 13 334 12.9 22.5 0.00 0.76 0.76 81 1008.3
20260507011557 13 338 12.9 19.3 0.00 0.76 0.76 81 1008.5
20260507011055 13 332 11.3 19.3 0.00 0.76 0.76 81 1008.4
20260507010555 13 345 9.7 17.7 0.00 0.76 0.76 81 1008.4
20260507010109 13 343 8.0 16.1 0.00 0.76 0.76 81 1008.3
20260507005553 13 328 6.4 16.1 0.00 0.76 0.76 81 1008.7
20260507005052 13 322 4.8 16.1 0.00 0.76 0.76 80 1008.8
20260507004551 13 339 6.4 14.5 0.00 0.76 0.76 80 1008.6
20260507004050 13 351 8.0 14.5 0.00 0.76 0.76 80 1008.4
20260507003549 14 16 4.8 16.1 0.00 0.76 0.76 80 1008.4
20260507003048 14 336 3.2 14.5 0.00 0.76 0.76 80 1008.5
20260507002547 14 347 6.4 14.5 0.00 0.76 0.76 80 1008.3
20260507002046 14 10 4.8 17.7 0.00 0.76 0.76 80 1008.2
20260507001554 14 352 8.0 17.7 0.00 0.76 0.76 80 1008.1
20260507001044 15 329 9.7 17.7 0.00 0.76 0.76 80 1007.9
20260507000543 15 335 6.4 20.9 0.00 0.76 0.76 80 1007.9
20260507000043 15 345 12.9 20.9 0.00 0.76 0.76 80 1007.8
20260506235543 15 328 6.4 14.5 0.00 0.76 0.76 80 1007.8
20260506235041 15 340 4.8 14.5 0.00 0.76 0.76 80 1007.9
20260506234542 15 341 3.2 16.1 0.00 0.76 0.76 80 1007.3
20260506234039 15 313 4.8 20.9 0.00 0.76 0.76 80 1007.2
20260506233638 15 303 4.8 20.9 0.00 0.76 0.76 80 1007.0
20260506233038 15 326 4.8 12.9 0.00 0.76 0.76 80 1006.7
20260506232538 15 329 3.2 8.0 0.00 0.76 0.76 80 1006.6
20260506232037 16 276 1.6 4.8 0.00 0.76 0.76 80 1006.9
20260506231544 16 273 0.0 12.9 0.00 0.76 0.76 80 1006.7
20260506231036 16 272 3.2 12.9 0.00 0.76 0.76 80 1006.8
20260506230536 16 284 1.6 8.0 0.00 0.76 0.76 79 1006.7
20260506230043 16 286 0.0 9.7 0.00 0.76 0.76 79 1006.7
20260506225535 16 274 1.6 9.7 0.00 0.76 0.76 79 1006.6
20260506225035 16 295 1.6 6.4 0.00 0.76 0.76 78 1006.5
20260506224538 16 276 1.6 8.0 0.00 0.76 0.76 78 1006.5
20260506224033 16 339 3.2 8.0 0.00 0.76 0.76 78 1006.5
20260506223536 16 330 1.6 8.0 0.00 0.76 0.76 78 1006.5
20260506223035 16 320 1.6 8.0 0.00 0.76 0.76 78 1006.3
20260506222534 16 265 1.6 8.0 0.00 0.76 0.76 78 1006.2
20260506222036 16 285 1.6 4.8 0.00 0.76 0.76 78 1006.3
20260506221536 16 285 1.6 6.4 0.00 0.76 0.76 77 1006.4
20260506221033 16 334 1.6 6.4 0.00 0.76 0.76 77 1006.1
20260506220534 16 268 0.0 6.4 0.00 0.76 0.76 77 1006.1
20260506220038 16 285 0.0 4.8 0.00 0.76 0.76 76 1006.0
20260506215533 16 285 0.0 12.9 0.00 0.76 0.76 76 1005.9
20260506215033 17 317 1.6 11.3 0.00 0.76 0.76 75 1006.0
20260506214537 17 285 1.6 11.3 0.00 0.76 0.76 74 1005.9
20260506214032 17 285 3.2 11.3 0.00 0.76 0.76 74 1005.8
20260506213532 17 285 1.6 11.3 0.00 0.76 0.76 73 1005.6
20260506213035 17 301 1.6 4.8 0.00 0.76 0.76 73 1005.6
20260506212532 17 256 0.0 4.8 0.00 0.76 0.76 73 1005.5
20260506212032 17 256 1.6 4.8 0.00 0.76 0.76 73 1005.4
20260506211535 17 264 0.0 4.8 0.00 0.76 0.76 73 1005.4
20260506211032 17 203 0.0 9.7 0.00 0.76 0.76 73 1005.2
20260506210532 17 203 1.6 9.7 0.00 0.76 0.76 73 1005.0
20260506210033 17 271 1.6 8.0 0.00 0.76 0.76 73 1004.8
20260506205531 17 208 1.6 6.4 0.00 0.76 0.76 73 1005.0
20260506205031 17 247 1.6 4.8 0.00 0.76 0.76 74 1004.9
20260506204535 17 210 1.6 8.0 0.00 0.76 0.76 74 1004.9
20260506204031 17 227 0.0 8.0 0.00 0.76 0.76 74 1004.9
20260506203530 18 218 0.0 8.0 0.00 0.76 0.76 73 1004.9
20260506203032 18 217 1.6 11.3 0.00 0.76 0.76 73 1004.8
20260506202530 18 228 1.6 11.3 0.00 0.76 0.76 73 1004.8
20260506202032 18 231 3.2 9.7 0.00 0.76 0.76 73 1004.8
20260506201537 18 249 1.6 9.7 0.00 0.76 0.76 72 1004.6
20260506201030 18 233 3.2 11.3 0.00 0.76 0.76 71 1004.6
20260506200530 18 228 3.2 11.3 0.00 0.76 0.76 70 1004.6
20260506200030 18 247 1.6 8.0 0.00 0.76 0.76 69 1004.7
20260506195528 18 237 3.2 8.0 0.00 0.76 0.76 68 1004.9
20260506195027 18 260 1.6 11.3 0.00 0.76 0.76 68 1004.8
20260506194527 17 241 3.2 14.5 0.00 0.76 0.76 69 1004.8
20260506194029 18 214 4.8 14.5 0.00 0.76 0.76 68 1005.0
20260506193526 18 208 3.2 12.9 0.00 0.76 0.76 67 1004.8
20260506193026 18 260 1.6 6.4 0.00 0.76 0.76 67 1004.8
20260506192526 18 234 3.2 6.4 0.03 0.76 0.76 66 1004.8
20260506192028 18 233 0.0 4.8 0.03 0.76 0.76 66 1004.9
20260506191525 17 238 1.6 4.8 0.05 0.76 0.76 66 1004.9
20260506191025 17 285 0.0 4.8 0.08 0.76 0.76 67 1004.9
20260506190524 17 304 1.6 4.8 0.08 0.76 0.76 67 1005.0
20260506190028 17 239 0.0 3.2 0.10 0.76 0.76 68 1005.1
20260506185524 17 240 0.0 3.2 0.10 0.76 0.76 68 1005.1
20260506185024 17 223 0.0 4.8 0.13 0.76 0.76 69 1005.2
20260506184525 17 224 0.0 8.0 0.13 0.76 0.76 69 1005.2
20260506184025 17 210 1.6 8.0 0.13 0.76 0.76 69 1005.2
20260506183524 17 273 0.0 6.4 0.13 0.76 0.76 69 1005.2
20260506183023 17 266 1.6 6.4 0.13 0.76 0.76 70 1005.4
20260506182527 17 272 0.0 3.2 0.10 0.71 0.71 70 1005.4
20260506182023 17 270 0.0 3.2 0.08 0.71 0.71 70 1005.5
20260506181523 17 267 0.0 3.2 0.08 0.71 0.71 70 1005.4
20260506181023 17 269 0.0 3.2 0.05 0.69 0.69 71 1005.4
20260506180523 17 270 0.0 4.8 0.05 0.69 0.69 72 1005.4
20260506180030 17 228 1.6 8.0 0.03 0.66 0.66 72 1005.4
20260506175522 17 228 1.6 8.0 0.03 0.66 0.66 73 1005.4
20260506175022 17 245 1.6 6.4 0.00 0.64 0.64 72 1005.4
20260506174525 17 230 1.6 6.4 0.00 0.64 0.64 72 1005.4
20260506174021 17 232 1.6 11.3 0.00 0.64 0.64 72 1005.2
20260506173522 17 209 1.6 11.3 0.00 0.64 0.64 72 1005.1
20260506173024 17 249 1.6 17.7 0.00 0.64 0.64 72 1005.1
20260506172521 17 218 3.2 17.7 0.00 0.64 0.64 72 1005.2
20260506172021 16 212 4.8 9.7 0.00 0.64 0.64 72 1005.1
20260506171534 16 244 1.6 6.4 0.00 0.64 0.64 72 1005.0
20260506171020 16 192 1.6 8.0 0.00 0.64 0.64 72 1005.1
20260506170524 16 235 1.6 8.0 0.00 0.64 0.64 72 1005.1
20260506170021 16 227 1.6 12.9 0.00 0.64 0.64 71 1005.0
20260506165520 16 230 3.2 16.1 0.00 0.64 0.64 71 1005.0
20260506165020 16 232 3.2 17.7 0.00 0.64 0.64 71 1005.2
20260506164523 16 203 8.0 17.7 0.00 0.64 0.64 70 1005.2
20260506164019 16 215 1.6 22.5 0.00 0.64 0.64 70 1005.1
20260506163519 16 187 4.8 16.1 0.00 0.64 0.64 70 1005.1
20260506163019 16 233 4.8 22.5 0.00 0.64 0.64 70 1005.1
20260506162518 16 218 8.0 22.5 0.00 0.64 0.64 70 1005.1
20260506162019 16 201 6.4 19.3 0.00 0.64 0.64 70 1005.0
20260506161519 16 195 6.4 19.3 0.00 0.64 0.64 70 1005.0
20260506161018 16 191 9.7 20.9 0.00 0.64 0.64 69 1004.9
20260506160518 16 223 4.8 24.1 0.00 0.64 0.64 68 1005.1
20260506160021 16 212 9.7 30.6 0.00 0.64 0.64 68 1005.0
20260506155518 15 224 14.5 33.8 0.00 0.64 0.64 68 1004.8
20260506155017 15 215 9.7 33.8 0.00 0.64 0.64 69 1004.9
20260506154519 15 214 12.9 24.1 0.00 0.64 0.64 69 1004.9
20260506154015 15 209 8.0 27.4 0.00 0.64 0.64 68 1004.9
20260506153516 15 208 12.9 27.4 0.00 0.64 0.64 68 1004.7
20260506153015 15 228 9.7 22.5 0.03 0.64 0.64 68 1004.7
20260506152517 15 201 11.3 24.1 0.05 0.64 0.64 69 1004.8
20260506152015 15 239 11.3 22.5 0.08 0.64 0.64 69 1004.9